STARLINK-33732, 63575

Orbit data source: Space-Track

STARLINK-33732, 63575 is a payload satellite owned by SpaceX/Seattle (US) in LEO that was launched on Mon, 14 Apr 2025 UTC via an FALCON 9 launch vehicle from the Air Force Eastern Test Range (AFETR). Payload-class satellites include a variety of spacecraft equipped with specific instruments for various scientific and technological missions. These include communications satellites like Starlink; space stations such as the ISS; scientific satellites like the Hubble; Earth observation satellites from companies like Planet Labs, Umbra, and HawkEye 360; GPS; miniature CubeSats for education and research; and military/defense satellites.

Loading next visibility...
Identifier
63575, 2025-076G
Orbit
LEO
Last TLE update
9 hours ago
Origin
Manufacturer
SpaceX/Seattle
Mission
Operational Commercial Communications
Bus & Motor
STARLINK V2MO, Unknown motor
Mass
575 kg wet, ~530 kg dry
Launch date (UTC)
2025-04-14 (3 months ago)
Launch vehicle
FALCON 9
Launch site
Air Force Eastern Test Range (AFETR)
Object type
Payload
Rocket body
Debris
Shape & HBR
Box + 1 Pan, 29 m
Radar Cross Section
41.120 m², Large (>1 m²)

Expand to show TLE details & history

TLE from 9 hours ago
0 STARLINK-33732
1 63575U 25076G   25182.04968334  .00019927  00000-0  73095-3 0  9996
2 63575  43.0071 302.9712 0002563 274.5193  85.5366 15.27613042 13103
Epoch: 2025-07-01T01:11Z
TLE epoch observation values (Epoch: 2025-07-01T01:11:32.64Z)
Latitude
-0.00002°
Longitude
5.73447°
Altitude
482.59 km
Speed
7.626 km/s
True Right ascension
20h 11m 53s
True Declination
0° 00' 00"
Sunlit
Object was in full shadow at epoch
Visualization orbit readout
Latitude
-42.14411°
Longitude
-71.16843°
Altitude
494.083 km
Speed
7.619 km/s
Apparent Right ascension
12h 33m 01s
Apparent Declination
-47° 59' 12"
Sunlit
Object is in full shadow
Visualization observer readout
Local Sidereal Time
21:54:17
Azimuth
240.75° WSW
Elevation
-60.668°
Doppler factor
1
Orbital elements
Apogee altitude
486.653 km
Perigee altitude
483.135 km
Semi-major axis
6,863.031 km
Eccentricity
0.00026
Inclination
43.0071°
RAAN
302.9712°
Arg. of periapsis
274.5193°
True anomaly
Unknown
Mean anomaly
85.5366°
Eccentric anomaly
Unknown
Mean motion
3.81741 °/min
Orbital period
94.3 mins
BSTAR
0.00073095
Loading maneuver chart data...
Loading SW <> Apogee altitude chart data...
Loading historical data...
Loading historical data...
Loading historical data...
Loading historical data...
Loading historical data...
Loading historical data...
Loading historical data...

STARLINK-33732 Visibility forecast

Observer location: undefined°, undefined°

Span
Click to sort rows by Start time (UTC) header in descending order
Start Az.
Max El. time (UTC)
Max El. Az.
Max El.
End time (UTC)
End Az.
4 mins2025-07-01 10:47:51.803Z184.409° SSW2025-07-01 10:49:51.803Z146.153° SSE18.966°2025-07-01 10:51:51.803Z106.626° ESE
6 mins2025-07-01 12:25:51.803Z246.822° WSW2025-07-01 12:28:51.803Z91.37° ESE43.557°2025-07-01 12:31:51.803Z72.787° E
5 mins2025-07-01 14:05:51.803Z292.997° NW2025-07-01 14:07:51.803Z12.378° NNE37.785°2025-07-01 14:10:51.803Z73.553° E
5 mins2025-07-01 15:44:51.803Z292.998° NW2025-07-01 15:46:51.803Z24.794° NE44.166°2025-07-01 15:49:51.803Z101.128° ESE
4 mins2025-07-01 17:23:51.803Z255.757° W2025-07-01 17:25:51.803Z202.399° SSW26.054°2025-07-01 17:27:51.803Z159.416° S
|